timestamp,surface_pressure_avg,surface_temp_avg,battery_voltage,lat,long
2019-03-12 00:00:00+00:00,262.6247,-0.91,12.89,47.84626,-54.09684
2019-03-12 00:10:00+00:00,274.803,-0.9,12.81,47.84626,-54.09684
2019-03-12 00:20:00+00:00,282.283,-0.91,12.89,47.84626,-54.09684
2019-03-12 00:30:00+00:00,286.6564,-0.93,12.89,47.84626,-54.09684
2019-03-12 00:40:00+00:00,297.7814,-0.92,12.97,47.84626,-54.09684
2019-03-12 00:50:00+00:00,305.1763,-0.91,12.97,47.84626,-54.09684
2019-03-12 01:00:00+00:00,301.4597,-0.92,12.89,47.84626,-54.09684
2019-03-12 01:10:00+00:00,303.7297,-0.92,12.81,47.84626,-54.09684
2019-03-12 01:20:00+00:00,322.3896,-0.91,12.89,47.84626,-54.09684
2019-03-12 01:30:00+00:00,331.7696,-0.92,12.89,47.84626,-54.09684
2019-03-12 01:40:00+00:00,332.7396,-0.91,12.89,47.84626,-54.09684
2019-03-12 01:50:00+00:00,335.5862,-0.91,12.89,47.84626,-54.09684
2019-03-12 02:00:00+00:00,341.8313,-0.9,12.81,47.84626,-54.09684
2019-03-12 02:10:00+00:00,344.6429,-0.9,12.73,47.84626,-54.09684
2019-03-12 02:20:00+00:00,345.8713,-0.91,12.81,47.84626,-54.09684
2019-03-12 02:30:00+00:00,349.5679,-0.91,12.81,47.84626,-54.09684
2019-03-12 02:40:00+00:00,354.2813,-0.91,12.89,47.84626,-54.09684
2019-03-12 02:50:00+00:00,350.5179,-0.91,12.89,47.84626,-54.09684
2019-03-12 03:00:00+00:00,340.7813,-0.91,12.81,47.84626,-54.09684
2019-03-12 03:10:00+00:00,339.8747,-0.93,12.73,47.84626,-54.09684
2019-03-12 03:20:00+00:00,342.4196,-0.93,12.81,47.84626,-54.09684
2019-03-12 03:30:00+00:00,339.0946,-0.93,12.81,47.84626,-54.09684
2019-03-12 03:40:00+00:00,332.5663,-0.93,12.81,47.84626,-54.09684
2019-03-12 03:50:00+00:00,329.473,-0.93,12.81,47.84626,-54.09684
2019-03-12 04:00:00+00:00,327.6164,-0.94,12.81,47.84626,-54.09684
2019-03-12 04:10:00+00:00,326.4163,-0.94,12.73,47.84626,-54.09684
2019-03-12 04:20:00+00:00,320.633,-0.94,12.81,47.84626,-54.09684
2019-03-12 04:30:00+00:00,317.7747,-0.93,12.81,47.84626,-54.09684
2019-03-12 04:40:00+00:00,315.388,-0.93,12.81,47.84626,-54.09684
2019-03-12 04:50:00+00:00,309.0797,-0.93,12.81,47.84626,-54.09684
2019-03-12 05:00:00+00:00,302.2764,-0.94,12.73,47.84626,-54.09684
2019-03-12 05:10:00+00:00,297.0147,-0.94,12.65,47.84626,-54.09684
2019-03-12 05:20:00+00:00,291.4164,-0.96,12.73,47.84626,-54.09684
2019-03-12 05:30:00+00:00,279.748,-0.99,12.81,47.84626,-54.09684
2019-03-12 05:40:00+00:00,269.0081,-1.0,12.81,47.84626,-54.09684
2019-03-12 05:50:00+00:00,260.0064,-1.0,12.81,47.84626,-54.09684
2019-03-12 06:00:00+00:00,250.5247,-1.0,12.73,47.84626,-54.09684
2019-03-12 06:10:00+00:00,242.4331,-0.99,12.65,47.84626,-54.09684
2019-03-12 06:20:00+00:00,234.3281,-0.99,12.73,47.84626,-54.09684
2019-03-12 06:30:00+00:00,227.6914,-0.99,12.73,47.84626,-54.09684
2019-03-12 06:40:00+00:00,223.4348,-0.99,12.81,47.84626,-54.09684
2019-03-12 06:50:00+00:00,219.5448,-0.98,12.81,47.84626,-54.09684
2019-03-12 07:00:00+00:00,211.0214,-0.99,12.73,47.84626,-54.09684
2019-03-12 07:10:00+00:00,203.7231,-0.99,12.65,47.84626,-54.09684
2019-03-12 07:20:00+00:00,200.5714,-0.98,12.73,47.84626,-54.09684
2019-03-12 07:30:00+00:00,193.2515,-0.99,12.73,47.84626,-54.09684
2019-03-12 07:40:00+00:00,182.8265,-1.0,12.81,47.84626,-54.09684
2019-03-12 07:50:00+00:00,176.8448,-1.0,12.81,47.84626,-54.09684
2019-03-12 08:00:00+00:00,172.2798,-0.99,12.73,47.84626,-54.09684
2019-03-12 08:10:00+00:00,167.1481,-0.98,12.65,47.84626,-54.09684
2019-03-12 08:20:00+00:00,167.2032,-0.97,12.73,47.84626,-54.09684
2019-03-12 08:30:00+00:00,169.7698,-0.96,12.73,47.84626,-54.09684
2019-03-12 08:40:00+00:00,166.0032,-0.95,12.81,47.84626,-54.09684
2019-03-12 08:50:00+00:00,167.6732,-0.95,12.81,47.84626,-54.09684
2019-03-12 09:00:00+00:00,173.9032,-0.94,12.73,47.84626,-54.09684
2019-03-12 09:10:00+00:00,169.0365,-0.94,12.65,47.84626,-54.09684
2019-03-12 09:20:00+00:00,170.6531,-0.95,12.73,47.84626,-54.09684
2019-03-12 09:30:00+00:00,183.1298,-0.95,12.73,47.84626,-54.09684
2019-03-12 09:40:00+00:00,180.1398,-0.96,12.81,47.84626,-54.09684
2019-03-12 09:50:00+00:00,176.6615,-1.0,12.81,47.84626,-54.09684
2019-03-12 10:00:00+00:00,190.4881,-1.0,12.73,47.84626,-54.09684
2019-03-12 10:10:00+00:00,198.0982,-1.0,12.65,47.84626,-54.09684
2019-03-12 10:20:00+00:00,193.5198,-1.0,12.73,47.84626,-54.09684
2019-03-12 10:30:00+00:00,199.5048,-1.0,12.73,47.84626,-54.09684
2019-03-12 10:40:00+00:00,212.9364,-1.0,12.81,47.84626,-54.09684
2019-03-12 10:50:00+00:00,212.7032,-1.0,12.81,47.84626,-54.09684
2019-03-12 11:00:00+00:00,209.0515,-1.0,12.73,47.84626,-54.09684
2019-03-12 11:10:00+00:00,213.7348,-0.99,12.73,47.84626,-54.09684
2019-03-12 11:20:00+00:00,217.0381,-0.98,12.81,47.84626,-54.09684
2019-03-12 11:30:00+00:00,219.2981,-0.98,12.81,47.84626,-54.09684
2019-03-12 11:40:00+00:00,219.1898,-0.98,12.89,47.84626,-54.09684
2019-03-12 11:50:00+00:00,218.1598,-0.97,12.97,47.84626,-54.09684
2019-03-12 12:00:00+00:00,225.0831,-0.97,12.89,47.84626,-54.09684
2019-03-12 12:10:00+00:00,233.3648,-0.97,12.81,47.84626,-54.09684
2019-03-12 12:20:00+00:00,231.7564,-0.96,13.05,47.84626,-54.09684
2019-03-12 12:30:00+00:00,235.1548,-0.96,13.44,47.84626,-54.09684
2019-03-12 12:40:00+00:00,250.0248,-0.95,13.68,47.84626,-54.09684
2019-03-12 12:50:00+00:00,258.4714,-0.94,13.84,47.84626,-54.09684
2019-03-12 13:00:00+00:00,257.8064,-0.94,13.84,47.84626,-54.09684
2019-03-12 13:10:00+00:00,267.2415,-0.94,13.76,47.84626,-54.09684
2019-03-12 13:20:00+00:00,279.1313,-0.93,13.92,47.84626,-54.09684
2019-03-12 13:30:00+00:00,284.108,-0.94,13.92,47.84626,-54.09684
2019-03-12 13:40:00+00:00,289.733,-0.92,14.08,47.84626,-54.09684
2019-03-12 13:50:00+00:00,297.4363,-0.91,14.16,47.84626,-54.09684
2019-03-12 14:00:00+00:00,309.5429,-0.91,14.24,47.84626,-54.09684
2019-03-12 14:10:00+00:00,317.098,-0.91,14.16,47.84626,-54.09684
2019-03-12 14:20:00+00:00,318.6264,-0.91,14.8,47.84626,-54.09684
2019-03-12 14:30:00+00:00,321.4996,-0.9,16.79,47.84626,-54.09684
2019-03-12 14:40:00+00:00,327.7629,-0.9,14.72,47.84626,-54.09684
2019-03-12 14:50:00+00:00,326.9647,-0.9,14.72,47.84626,-54.09684
2019-03-12 15:00:00+00:00,326.6413,-0.9,14.64,47.84626,-54.09684
2019-03-12 15:10:00+00:00,332.7764,-0.9,14.72,47.84626,-54.09684
2019-03-12 15:20:00+00:00,333.9346,-0.9,14.8,47.84626,-54.09684
2019-03-12 15:30:00+00:00,331.8264,-0.9,14.88,47.84626,-54.09684
2019-03-12 15:40:00+00:00,327.653,-0.9,14.96,47.84626,-54.09684
2019-03-12 15:50:00+00:00,326.113,-0.9,14.8,47.84626,-54.09684
2019-03-12 16:00:00+00:00,326.8914,-0.9,14.8,47.84626,-54.09684
2019-03-12 16:10:00+00:00,326.1347,-0.9,14.8,47.84626,-54.09684
2019-03-12 16:20:00+00:00,322.7513,-0.9,15.04,47.84626,-54.09684
2019-03-12 16:30:00+00:00,317.8164,-0.9,14.96,47.84626,-54.09684
2019-03-12 16:40:00+00:00,314.9363,-0.9,14.96,47.84626,-54.09684
2019-03-12 16:50:00+00:00,309.9863,-0.9,14.96,47.84626,-54.09684
2019-03-12 17:00:00+00:00,309.0163,-0.9,14.8,47.84626,-54.09684
2019-03-12 17:10:00+00:00,309.0829,-0.9,14.8,47.84626,-54.09684
2019-03-12 17:20:00+00:00,306.7515,-0.9,14.88,47.84626,-54.09684
2019-03-12 17:30:00+00:00,304.0147,-0.9,14.8,47.84626,-54.09684
2019-03-12 17:40:00+00:00,299.118,-0.89,14.8,47.84626,-54.09684
2019-03-12 17:50:00+00:00,293.6464,-0.87,14.72,47.84626,-54.09684
2019-03-12 18:00:00+00:00,289.158,-0.85,14.56,47.84626,-54.09684
2019-03-12 18:10:00+00:00,284.4431,-0.83,14.48,47.84626,-54.09684
2019-03-12 18:20:00+00:00,276.8247,-0.8,14.48,47.84626,-54.09684
2019-03-12 18:30:00+00:00,271.0448,-0.8,14.4,47.84626,-54.09684
2019-03-12 18:40:00+00:00,264.9564,-0.8,14.4,47.84626,-54.09684
2019-03-12 18:50:00+00:00,260.6831,-0.8,14.32,47.84626,-54.09684
2019-03-12 19:00:00+00:00,255.2081,-0.8,14.24,47.84626,-54.09684
2019-03-12 19:10:00+00:00,250.5031,-0.8,14.08,47.84626,-54.09684
2019-03-12 19:20:00+00:00,245.9547,-0.81,14.08,47.84626,-54.09684
2019-03-12 19:30:00+00:00,240.9048,-0.83,14.08,47.84626,-54.09684
2019-03-12 19:40:00+00:00,230.6214,-0.85,14.08,47.84626,-54.09684
2019-03-12 19:50:00+00:00,224.4398,-0.87,14.08,47.84626,-54.09684
2019-03-12 20:00:00+00:00,225.4114,-0.87,13.92,47.84626,-54.09684
2019-03-12 20:10:00+00:00,223.5514,-0.87,13.76,47.84626,-54.09684
2019-03-12 20:20:00+00:00,214.9264,-0.9,13.76,47.84626,-54.09684
2019-03-12 20:30:00+00:00,218.4281,-0.9,13.76,47.84626,-54.09684
2019-03-12 20:40:00+00:00,228.3547,-0.9,13.68,47.84626,-54.09684
2019-03-12 20:50:00+00:00,226.5648,-0.9,13.68,47.84626,-54.09684
2019-03-12 21:00:00+00:00,226.2498,-0.9,13.53,47.84626,-54.09684
2019-03-12 21:10:00+00:00,234.7897,-0.9,13.37,47.84626,-54.09684
2019-03-12 21:20:00+00:00,233.7164,-0.9,13.37,47.84626,-54.09684
2019-03-12 21:30:00+00:00,225.7881,-0.9,13.29,47.84626,-54.09684
2019-03-12 21:40:00+00:00,233.2581,-0.9,13.29,47.84626,-54.09684
2019-03-12 21:50:00+00:00,244.1914,-0.9,13.29,47.84626,-54.09684
2019-03-12 22:00:00+00:00,248.2914,-0.9,13.21,47.84626,-54.09684
2019-03-12 22:10:00+00:00,248.8898,-0.9,13.05,47.84626,-54.09684
2019-03-12 22:20:00+00:00,256.4431,-0.9,13.05,47.84626,-54.09684
2019-03-12 22:30:00+00:00,265.8481,-0.9,13.05,47.84626,-54.09684
2019-03-12 22:40:00+00:00,268.228,-0.87,13.05,47.84626,-54.09684
2019-03-12 22:50:00+00:00,266.638,-0.86,13.05,47.84626,-54.09684
2019-03-12 23:00:00+00:00,271.1464,-0.84,12.97,47.84626,-54.09684
2019-03-12 23:10:00+00:00,277.3864,-0.84,12.89,47.84626,-54.09684
2019-03-12 23:20:00+00:00,277.3964,-0.84,12.97,47.84626,-54.09684
2019-03-12 23:30:00+00:00,278.7364,-0.82,12.97,47.84626,-54.09684
2019-03-12 23:40:00+00:00,286.0714,-0.83,12.97,47.84626,-54.09684
2019-03-12 23:50:00+00:00,293.8014,-0.82,12.97,47.84626,-54.09684
